[[{"header":{"parameterUnit":"m.s-1","parameterCategory":1,"la1":30.2991,"la2":30.254,"lo1":-89.0895,"lo2":-89.0444,"dy":0.0017,"dx":0.0017,"nx":28,"ny":28,"refTime":"2023-07-27T09:00:00:Z","depth":0,"parameterNumber":2,"parameterNumberName":"U-component_of_WINDS"},"data":[0,0,0,0,0,0,0,0,0,0,0,0,0,0,0,0,0,0,0,0,0,0,0,0,0,0,0,0,0,0,0,0,0,0,0,0,0,0,0,0,0,0,0,0,0,0,0,0,0,0,0,0,0,0,0,0,0,0,1.8254,1.8255,0,1.8301,1.8302,1.8302,1.8289,1.8288,1.8287,1.8286,1.8333,1.8335,1.8337,0,0,0,0,0,0,0,0,0,0,0,0,0,1.8149,1.8151,1.8254,1.8255,1.8255,1.8301,1.8302,1.8302,1.8289,1.8288,1.8287,1.8286,1.8332,1.8335,1.8337,0,0,0,0,0,0,0,0,0,0,0,0,0,1.8195,1.8152,1.8254,1.8254,1.8255,1.8301,1.8302,1.8303,1.829,1.8288,1.8287,1.8285,1.8331,1.8335,1.8338,1.8386,0,0,1.8347,1.8349,0,0,0,0,0,0,0,0,1.8193,1.8199,1.8254,1.8254,1.8255,1.8288,1.8282,1.8331,1.829,1.8276,1.8286,1.8285,1.8319,1.8323,1.8335,1.8388,1.839,1.8348,1.835,1.8351,1.8352,0,0,0,0,0,0,0,1.819,1.8197,1.8273,1.8254,1.8255,1.8251,1.8256,1.8291,1.8305,1.8277,1.8277,1.8282,1.8319,1.8332,1.8336,1.8391,1.8348,1.835,1.8352,1.8354,1.8483,1.8485,0,0,0,0,0,0,1.8186,1.8195,1.8271,1.8274,1.822,1.8254,1.826,1.8279,1.8305,1.8307,1.8284,1.8282,1.8327,1.8332,1.8338,1.8394,1.8351,1.8354,1.8356,1.8482,1.8483,1.8485,0,0,0,0,0,0,1.8184,1.8193,1.8269,1.8234,1.8243,1.8257,1.8279,1.828,1.8293,1.8309,1.8311,1.8294,1.8326,1.8333,1.8374,1.8395,1.8355,1.8358,1.848,1.8482,1.8484,1.8508,0,0,0,0,0,0,1.8181,1.8193,1.8212,1.8235,1.8245,1.8305,1.828,1.8282,1.8299,1.8297,1.832,1.8323,1.8326,1.8369,1.8377,1.8399,1.8361,1.8478,1.8481,1.8484,1.8505,1.8511,1.8515,0,0,0,0,0,1.8177,1.8217,1.8213,1.8222,1.827,1.8307,1.8313,1.8316,1.8301,1.832,1.833,1.8322,1.8392,1.8373,1.8382,1.8405,1.8476,1.848,1.8483,1.8503,1.851,1.8515,0,0,0,0,0,0,1.8196,1.822,1.8216,1.8264,1.8283,1.8304,1.8328,1.8324,1.8347,1.8344,1.8347,1.8352,1.8393,1.8404,1.8382,1.8452,1.8432,1.8437,1.8444,1.845,1.8455,1.8451,1.8363,0,0,0,0,0,1.8206,1.8234,1.8254,1.8294,1.8304,1.8315,1.8331,1.8332,1.8352,1.836,1.8373,1.8392,1.8417,1.8435,1.846,1.8507,1.851,1.8527,1.8532,1.8537,1.8541,1.8564,1.8571,1.8496,1.8496,1.8496,0,0,1.8226,1.8243,1.8261,1.8298,1.8313,1.8341,1.8322,1.8353,1.8373,1.8364,1.8402,1.8413,1.8434,1.8477,1.8497,1.8487,1.8562,1.8541,1.8544,1.8546,1.8568,1.8575,1.8581,1.8499,1.8498,1.8498,0,0,1.8277,1.8294,1.8328,1.8343,1.8366,1.8373,1.8381,1.8403,1.8409,1.8448,1.8441,1.8465,1.8511,1.8525,1.8539,1.8594,1.8586,1.8602,1.8628,1.865,1.8656,1.8661,1.8679,1.8685,1.8606,1.8606,1.8606,0,1.8299,1.8342,1.8346,1.8377,1.8393,1.8386,1.842,1.8435,1.8465,1.8475,1.8464,1.852,1.8534,1.8579,1.8592,1.8604,1.8612,1.8598,1.8655,1.866,1.8665,1.8682,1.8688,1.8608,1.8607,1.8607,1.8607,0,1.8367,1.8397,1.8422,1.845,1.8469,1.8502,1.8509,1.8527,1.8526,1.8534,1.8572,1.8588,1.8616,1.8627,1.8627,1.8672,1.8665,1.8655,1.8634,1.8674,1.8689,1.8696,1.861,1.8609,1.8609,1.8608,0,0,1.8431,1.846,1.8469,1.8481,1.8506,1.8528,1.856,1.8587,1.8601,1.8622,1.8647,1.8685,1.8675,1.869,1.8691,1.8711,1.8751,1.8698,1.8699,1.8706,1.8799,1.8805,1.8812,1.8747,1.8748,1.8749,1.8796,0,1.8482,1.8537,1.8541,1.8591,1.8617,1.8611,1.8637,1.8655,1.8662,1.8684,1.8692,1.8718,1.8705,1.8713,1.8733,1.8742,1.8769,1.8739,1.8768,1.8769,1.8761,1.8821,1.8828,1.8872,1.8803,1.8804,1.8805,0,1.8549,1.8571,1.8624,1.8643,1.8654,1.8678,1.8702,1.8724,1.8743,1.8746,1.8763,1.8761,1.8791,1.877,1.8811,1.879,1.8803,1.8809,1.881,1.8812,1.8788,1.8822,1.8886,1.8892,1.8815,1.8814,1.8813,0,1.8587,1.8631,1.8667,1.8678,1.8701,1.8718,1.8729,1.8746,1.8761,1.8782,1.8791,1.8815,1.8828,1.8846,1.885,1.8835,1.889,1.887,1.8892,1.8892,1.8903,1.8902,1.8968,1.8914,1.8914,1.8914,1.8914,0,1.8643,1.8675,1.8684,1.8706,1.8741,1.8744,1.8778,1.8787,1.8803,1.8825,1.8822,1.8843,1.8847,1.8869,1.8872,1.8904,1.891,1.8913,1.8913,1.8912,1.8912,1.8919,1.8915,1.8915,1.8915,1.8915,1.8914,0,1.8691,1.8699,1.8738,1.8757,1.8762,1.8786,1.8802,1.8822,1.8829,1.8858,1.8865,1.8875,1.89,1.8906,1.8936,1.8938,1.8975,1.8973,1.8969,1.8968,1.8989,1.8986,1.9061,1.907,1.9012,1.9012,1.9013,0,1.8725,1.8749,1.8771,1.8786,1.8797,1.8821,1.8837,1.8841,1.8856,1.8879,1.8896,1.8921,1.894,1.8981,1.899,1.9013,1.901,1.9035,1.9013,1.9011,1.9008,1.9005,1.9007,1.9038,1.9039,1.9039,1.904,0,1.8784,1.8786,1.8809,1.8833,1.8851,1.887,1.8887,1.89,1.8906,1.8924,1.8949,1.8965,1.8995,1.9019,1.9041,1.9051,1.9045,1.9046,1.9052,1.9051,1.9046,1.9047,1.8978,1.9044,1.9044,1.9043,1.9043,1.9043,1.8825,1.8845,1.8862,1.8887,1.8901,1.8917,1.8937,1.8946,1.8967,1.8992,1.8993,1.9021,1.9037,1.9066,1.9077,1.9098,1.909,1.9099,1.9101,1.9103,1.9103,1.9044,1.9102,1.9102,1.9102,1.9102,1.9102,0,1.8881,1.8892,1.8915,1.8939,1.8958,1.8953,1.8972,1.8987,1.9012,1.9028,1.9047,1.9076,1.9098,1.9109,1.9132,1.9146,1.9144,1.9151,1.9149,1.9151,1.911,1.9102,1.9152,1.9152,1.9152,1.9152,1.9152,1.9152,1.8913,1.8946,1.895,1.8989,1.9,1.9027,1.9038,1.9052,1.9065,1.9097,1.9116,1.9123,1.9136,1.9159,1.9179,1.9182,1.9189,1.9197,1.9198,1.916,1.9154,1.9149,1.9141,1.9199,1.9199,1.9237,1.9238,1.9238]},{"header":{"parameterUnit":"m.s-1","parameterCategory":1,"la1":30.2991,"la2":30.254,"lo1":-89.0895,"lo2":-89.0444,"dy":0.0017,"dx":0.0017,"nx":28,"ny":28,"refTime":"2023-07-27T09:00:00:Z","depth":0,"parameterNumber":3,"parameterNumberName":"V-component_of_WINDS"},"data":[0,0,0,0,0,0,0,0,0,0,0,0,0,0,0,0,0,0,0,0,0,0,0,0,0,0,0,0,0,0,0,0,0,0,0,0,0,0,0,0,0,0,0,0,0,0,0,0,0,0,0,0,0,0,0,0,0,0,3.8468,3.8468,0,3.8486,3.8486,3.8486,3.8422,3.842,3.8418,3.8416,3.8432,3.8435,3.8437,0,0,0,0,0,0,0,0,0,0,0,0,0,3.8374,3.8376,3.8468,3.8468,3.8468,3.8486,3.8486,3.8486,3.8422,3.842,3.8418,3.8415,3.8432,3.8434,3.8437,0,0,0,0,0,0,0,0,0,0,0,0,0,3.8406,3.8377,3.8468,3.8438,3.8436,3.8486,3.8486,3.8486,3.8423,3.842,3.8417,3.8414,3.8431,3.8434,3.8437,3.8515,0,0,3.8448,3.8449,0,0,0,0,0,0,0,0,3.8404,3.8409,3.8442,3.844,3.8438,3.8449,3.8459,3.8496,3.8423,3.8428,3.8416,3.8413,3.844,3.8442,3.8452,3.8516,3.8517,3.8448,3.845,3.8451,3.8452,0,0,0,0,0,0,0,3.8402,3.8408,3.8475,3.8443,3.844,3.8423,3.8424,3.8465,3.845,3.8427,3.8422,3.8426,3.8438,3.8449,3.8452,3.8517,3.8448,3.8451,3.8453,3.8454,3.8643,3.8646,0,0,0,0,0,0,3.8404,3.8407,3.8474,3.8475,3.8414,3.8427,3.8429,3.8448,3.8449,3.8446,3.8428,3.8423,3.8445,3.8448,3.8452,3.8542,3.8451,3.8454,3.8456,3.864,3.8644,3.8647,0,0,0,0,0,0,3.8402,3.8411,3.8473,3.844,3.8446,3.8432,3.8454,3.845,3.8461,3.845,3.8446,3.8442,3.8443,3.8448,3.85,3.8541,3.8456,3.8459,3.8637,3.8641,3.8646,3.8722,0,0,0,0,0,0,3.84,3.841,3.8441,3.8441,3.8448,3.8522,3.8457,3.8452,3.8467,3.846,3.8462,3.846,3.8441,3.8495,3.8503,3.8544,3.8461,3.8633,3.8639,3.8644,3.8716,3.8729,3.874,0,0,0,0,0,3.8397,3.8462,3.8443,3.8451,3.8486,3.8524,3.8528,3.8506,3.847,3.85,3.8493,3.846,3.8536,3.8501,3.8509,3.8552,3.863,3.8637,3.8644,3.8711,3.8726,3.874,0,0,0,0,0,0,3.8467,3.8461,3.844,3.8508,3.8517,3.8513,3.855,3.8524,3.8543,3.8535,3.8506,3.8507,3.8564,3.8563,3.8525,3.8626,3.8577,3.8585,3.8625,3.864,3.8651,3.8649,3.8464,0,0,0,0,0,3.849,3.8523,3.8516,3.8576,3.8581,3.8565,3.8581,3.8563,3.8571,3.8574,3.8571,3.858,3.8605,3.8622,3.8646,3.8716,3.8714,3.8749,3.8762,3.8771,3.8779,3.8814,3.8829,3.867,3.8669,3.8669,0,0,3.8539,3.854,3.8562,3.859,3.8595,3.8627,3.8569,3.8607,3.863,3.858,3.8628,3.8626,3.8634,3.8695,3.8721,3.8696,3.8823,3.878,3.8788,3.879,3.8822,3.8837,3.8851,3.8674,3.8673,3.8673,0,0,3.8643,3.8648,3.8697,3.8704,3.8712,3.8701,3.8712,3.8713,3.8709,3.8758,3.872,3.8747,3.8793,3.8799,3.8808,3.8913,3.8883,3.8922,3.8984,3.9018,3.9031,3.9042,3.9077,3.9091,3.893,3.893,3.893,0,3.8702,3.875,3.8726,3.8765,3.8778,3.8734,3.8783,3.879,3.8805,3.8814,3.8786,3.8841,3.8843,3.8904,3.8929,3.8939,3.895,3.8921,3.9031,3.9042,3.9052,3.9085,3.9099,3.8934,3.8934,3.8933,3.8933,0,3.8821,3.8855,3.8894,3.891,3.8926,3.8971,3.8951,3.8971,3.8951,3.8942,3.8991,3.8992,3.9014,3.9027,3.9008,3.9085,3.9068,3.9037,3.8985,3.9072,3.9103,3.9116,3.8941,3.8939,3.8938,3.8937,0,0,3.897,3.8971,3.8986,3.8991,3.8997,3.9022,3.9063,3.9085,3.9101,3.9113,3.9146,3.9184,3.9154,3.9165,3.9146,3.9176,3.9257,3.914,3.914,3.916,3.9339,3.9362,3.9377,3.9237,3.924,3.9242,3.9338,0,3.9071,3.9142,3.912,3.9191,3.9221,3.9179,3.9215,3.9221,3.9214,3.9237,3.9229,3.9256,3.9215,3.9221,3.925,3.9241,3.9292,3.9234,3.9266,3.9267,3.9264,3.9394,3.9419,3.9509,3.935,3.9352,3.9354,0,3.9198,3.9215,3.9289,3.9287,3.9299,3.9331,3.9348,3.9372,3.9377,3.937,3.9381,3.9355,3.9394,3.9344,3.9396,3.9357,3.9369,3.9367,3.937,3.937,3.9315,3.9396,3.9538,3.9551,3.9373,3.9371,3.937,0,3.9297,3.9338,3.9386,3.9393,3.9393,3.9416,3.9418,3.9421,3.9434,3.9449,3.9457,3.9476,3.9486,3.9501,3.9481,3.9446,3.9535,3.9484,3.9528,3.9529,3.9547,3.9546,3.9691,3.9558,3.9558,3.9558,3.9557,0,3.9411,3.9457,3.943,3.946,3.951,3.9484,3.9534,3.953,3.9533,3.9561,3.9527,3.9553,3.9525,3.9549,3.9533,3.9577,3.9583,3.9576,3.9571,3.9579,3.9579,3.9584,3.9577,3.9561,3.9561,3.956,3.9559,0,3.9529,3.9513,3.9563,3.9559,3.9559,3.9596,3.9591,3.9618,3.9608,3.9643,3.965,3.9634,3.966,3.9641,3.9667,3.9656,3.9714,3.9701,3.9712,3.9708,3.9752,3.9748,3.9904,3.9923,3.978,3.9781,3.9783,0,3.9602,3.9636,3.9635,3.9651,3.9654,3.9681,3.9694,3.967,3.9685,3.9694,3.9719,3.9742,3.9758,3.9801,3.9791,3.981,3.9796,3.985,3.9799,3.9804,3.9795,3.9792,3.9794,3.9859,3.9861,3.9863,3.9864,0,3.9732,3.9722,3.9743,3.9761,3.9778,3.9791,3.9801,3.9816,3.9791,3.981,3.9835,3.9848,3.9874,3.9896,3.9912,3.9911,3.9883,3.988,3.9891,3.9898,3.9902,3.9898,3.9738,3.9876,3.9875,3.9874,3.9873,3.9873,3.9828,3.9856,3.9859,3.9883,3.9888,3.9898,3.9922,3.9915,3.9936,3.9955,3.9939,3.9969,3.9973,3.999,3.9994,4.0016,3.9994,4.0011,4.0014,4.0018,4.0024,3.99,4.0019,4.0019,4.0019,4.0018,4.0018,0,3.9955,3.9955,3.9977,3.9991,4.001,3.9982,3.9991,4.0008,4.0035,4.0041,4.0058,4.0087,4.0108,4.01,4.0118,4.0138,4.0125,4.0143,4.0141,4.0141,4.0043,4.0031,4.0153,4.0153,4.0153,4.0153,4.0153,4.0153,4.0023,4.0067,4.0058,4.0104,4.0103,4.0132,4.014,4.0148,4.0152,4.0186,4.0203,4.0198,4.0198,4.0215,4.0233,4.023,4.0238,4.026,4.0253,4.0161,4.0148,4.0135,4.0123,4.0263,4.0263,4.0348,4.0348,4.0349]}]]